STARLINK-2278

Last updated on April 24, 2021, 12:02 a.m. UTC

1 48026U 21024BB  21113.25001157 -.01178790  00000-0 -18939-1 0  9994
2 48026  53.0465  56.1141 0001097  73.9288 238.4852 15.55380008  1825
UTC
Height (km)
Latitude
Longitude
Inclination
Orbital Period
UTC large
Height (km)
Speed (km/s)
/
Latitude / Longitude
Inclination (degrees)
Orbital Period (minutes)
Azimuth
Elevation
Range (km)
Doppler Factor
iOS Compass Heading
iOS Angle

Next 30 passes for location: Hong Kong

Rise time Rise Azimuth (degrees) Set time Set Azimuth (degrees) Duration Max altitude (degrees)

No matching passes for this satellites